FW0633 Weather Reports


Display with metric or nautical units.
time (UTC)temp
F
wind
direction
speed
MPH
gust
MPH
rain 1hr
in
rain 24hr
in
rain mn
in
humidity
%
barometer
mb
20260905123025 56 288 0.0 1.0 0.00 0.00 0.00 67 1038.6
20260905121505 57 264 0.0 1.0 0.00 0.00 0.00 67 1038.5
20260905120004 57 248 0.0 1.0 0.00 0.00 0.00 66 1038.5
20260905114525 57 261 0.0 1.0 0.00 0.00 0.00 66 1038.4
20260905113025 57 278 0.0 1.0 0.00 0.00 0.00 65 1038.6
20260905111505 57 280 0.0 1.0 0.00 0.00 0.00 64 1038.6
20260905110004 58 260 0.0 1.0 0.00 0.00 0.00 63 1038.5
20260905104504 58 253 0.0 1.0 0.00 0.00 0.00 62 1038.4
20260905103005 58 254 0.0 1.0 0.00 0.00 0.00 61 1038.3
20260905101505 58 247 0.0 1.0 0.00 0.00 0.00 60 1038.4
20260905100004 59 260 0.0 1.0 0.00 0.00 0.00 59 1038.4
20260905094524 59 259 0.0 2.0 0.00 0.00 0.00 58 1038.4
20260905093004 60 250 0.0 2.0 0.00 0.00 0.00 57 1038.4
20260905091504 60 273 0.0 2.0 0.00 0.00 0.00 57 1038.4
20260905090025 60 244 0.0 1.0 0.00 0.00 0.00 57 1038.5
20260905084503 61 238 0.0 1.0 0.00 0.00 0.00 56 1038.6
20260905083004 61 238 0.0 1.0 0.00 0.00 0.00 55 1038.7
20260905081504 62 277 0.0 1.0 0.00 0.00 0.00 55 1038.8
20260905080004 63 276 0.0 2.0 0.00 0.00 0.00 54 1039.0
20260905074524 64 271 0.0 1.0 0.00 0.00 0.00 53 1038.8
20260905073024 64 246 0.0 1.0 0.00 0.00 0.00 53 1038.8
20260905071504 65 280 0.0 2.0 0.00 0.00 0.00 55 1038.7
20260905070004 65 274 0.0 1.0 0.00 0.00 0.00 56 1038.7
20260905064524 65 0 0.0 0.0 0.00 0.00 0.00 58 1038.7
20260905063024 66 283 0.0 1.0 0.00 0.00 0.00 59 1038.6
20260905061524 67 283 0.0 1.0 0.00 0.00 0.00 60 1038.6
20260905060004 66 283 0.0 1.0 0.00 0.00 0.00 62 1038.5
20260905054503 66 0 0.0 0.0 0.00 0.00 0.00 64 1038.4
20260905053003 66 283 0.0 1.0 0.00 0.00 0.00 65 1038.4
20260905051504 67 0 0.0 0.0 0.00 0.00 0.00 63 1038.4
20260905050003 68 283 0.0 1.0 0.00 0.00 0.00 60 1038.2
20260905044503 68 0 0.0 0.0 0.00 0.00 0.00 59 1038.1
20260905043003 69 293 0.0 1.0 0.00 0.00 0.00 58 1038.1
20260905041527 68 123 0.0 1.0 0.00 0.00 0.00 58 1037.9
20260905040006 70 0 0.0 0.0 0.00 0.00 0.00 56 1037.8
20260905034506 72 135 0.0 2.0 0.00 0.00 0.00 52 1037.8
20260905033006 72 116 0.0 2.0 0.00 0.00 0.00 51 1037.8
20260905031505 72 148 0.0 1.0 0.00 0.00 0.00 51 1037.6
20260905030006 73 149 0.0 2.0 0.00 0.00 0.00 50 1037.3
20260905024505 74 187 0.0 1.0 0.00 0.00 0.00 48 1037.1
20260905023006 74 218 0.0 1.0 0.00 0.00 0.00 46 1036.9
20260905021507 76 211 0.0 4.0 0.00 0.00 0.00 44 1036.8
20260905020006 77 219 1.0 3.0 0.00 0.00 0.00 42 1036.8
20260905014507 78 238 2.0 6.0 0.00 0.00 0.00 41 1036.6
20260905013005 80 231 2.0 7.0 0.00 0.00 0.00 39 1036.6
20260905011505 82 243 2.0 8.0 0.00 0.00 0.00 38 1036.6
20260905010005 83 220 2.0 11.0 0.00 0.00 0.00 38 1036.5
20260905004505 83 226 3.0 12.0 0.00 0.00 0.00 38 1036.6
20260905003027 83 246 3.0 12.0 0.00 0.00 0.00 38 1036.6
20260905001505 84 241 3.0 10.0 0.00 0.00 0.00 39 1036.7
20260905000027 85 227 2.0 10.0 0.00 0.00 0.00 38 1036.7
20260904234505 84 237 3.0 10.0 0.00 0.00 0.00 38 1036.6
20260904233006 84 203 4.0 13.0 0.00 0.00 0.00 40 1036.6
20260904231506 84 221 2.0 8.0 0.00 0.00 0.00 38 1036.6
20260904230026 85 222 4.0 9.0 0.00 0.00 0.00 37 1036.8
20260904224505 84 208 4.0 11.0 0.00 0.00 0.00 37 1036.8
20260904223026 83 219 4.0 11.0 0.00 0.00 0.00 39 1037.0
20260904221505 84 232 4.0 11.0 0.00 0.00 0.00 38 1037.1
20260904220005 83 182 5.0 20.0 0.00 0.00 0.00 39 1036.6
20260904214505 83 223 3.0 11.0 0.00 0.00 0.00 40 1037.3
20260904213005 83 223 5.0 13.0 0.00 0.00 0.00 37 1037.4
20260904211505 83 223 4.0 15.0 0.00 0.00 0.00 40 1037.6
20260904210005 84 210 5.0 12.0 0.00 0.00 0.00 38 1037.6
20260904204505 84 223 4.0 13.0 0.00 0.00 0.00 41 1037.7
20260904203026 82 230 5.0 14.0 0.00 0.00 0.00 40 1037.8
20260904201505 84 214 5.0 14.0 0.00 0.00 0.00 38 1038.0
20260904200006 84 183 5.0 20.0 0.00 0.00 0.00 40 1038.0
20260904194527 84 198 5.0 17.0 0.00 0.00 0.00 40 1038.1
20260904193006 84 190 4.0 16.0 0.00 0.00 0.00 43 1038.2
20260904191526 84 214 5.0 13.0 0.00 0.00 0.00 41 1038.2
20260904190005 83 187 5.0 15.0 0.00 0.00 0.00 46 1038.4
20260904184505 82 208 4.0 14.0 0.00 0.00 0.00 46 1038.6
20260904183005 82 196 5.0 12.0 0.00 0.00 0.00 43 1038.8
20260904181505 82 197 4.0 12.0 0.00 0.00 0.00 46 1038.9
20260904180005 82 197 4.0 17.0 0.00 0.00 0.00 45 1039.0
20260904174504 81 228 4.0 12.0 0.00 0.00 0.00 46 1038.9
20260904173025 81 216 4.0 11.0 0.00 0.00 0.00 47 1038.9
20260904171506 80 219 4.0 9.0 0.00 0.00 0.00 50 1038.9
20260904170005 79 206 3.0 8.0 0.00 0.00 0.00 52 1038.8
20260904164505 78 203 4.0 10.0 0.00 0.00 0.00 53 1038.9
20260904163006 77 191 5.0 14.0 0.00 0.00 0.00 54 1038.6
20260904161505 77 217 4.0 12.0 0.00 0.00 0.00 56 1038.5
20260904160005 76 193 6.0 13.0 0.00 0.00 0.00 59 1038.6
20260904154525 75 224 4.0 13.0 0.00 0.00 0.00 59 1038.5
20260904153025 74 221 3.0 11.0 0.00 0.00 0.00 62 1038.3
20260904151504 74 216 3.0 13.0 0.00 0.00 0.00 65 1038.2
20260904150004 73 221 3.0 12.0 0.00 0.00 0.00 67 1038.2
20260904144504 72 197 3.0 11.0 0.00 0.00 0.00 69 1038.1
20260904143025 71 186 3.0 13.0 0.00 0.00 0.00 70 1038.0
20260904141504 70 206 3.0 6.0 0.00 0.00 0.00 74 1037.9
20260904140004 68 210 0.0 4.0 0.00 0.00 0.00 78 1037.6
20260904134504 66 0 0.0 0.0 0.00 0.00 0.00 80 1037.6
20260904133004 64 204 0.0 3.0 0.00 0.00 0.00 80 1037.4
20260904131504 64 141 0.0 2.0 0.00 0.00 0.00 79 1037.3
20260904130004 64 170 0.0 2.0 0.00 0.00 0.00 79 1037.1
20260904124504 65 211 1.0 6.0 0.00 0.00 0.00 77 1037.0